Wind_Speed
23 23 24 24 25 25 25 26 27 27 28 30 30 30 30 29 29 30 29 29 28 28 28 26 25 23 22 21 21 20 19 19 20 19 18 17 17 18 17 17 17 18 17 17
24 24 24 24 25 26 26 26 27 28 29 30 31 30 30 30 30 30 29 28 28 27 27 26 25 23 22 20 20 20 20 19 19 18 18 17 16 16 16 16 17 17 17 17
24 23 24 24 25 25 26 26 27 28 30 31 31 31 31 31 31 31 29 28 27 26 26 25 23 23 21 20 20 19 19 19 18 18 18 17 16 16 17 17 16 16 16 15
25 24 25 25 25 25 27 27 28 29 30 30 30 31 30 31 31 30 29 27 26 25 24 24 22 21 20 20 19 19 18 18 18 18 17 16 16 16 16 15 14 14 15 15
25 26 27 26 27 26 26 27 28 29 29 29 29 30 30 29 29 28 27 26 24 23 22 22 21 19 19 19 19 19 18 17 18 17 16 15 15 15 15 14 14 14 14 15
26 26 28 27 27 27 28 29 30 30 29 29 29 30 29 28 27 27 26 24 23 21 21 20 20 19 19 18 18 18 17 17 17 16 15 14 14 13 13 13 13 13 14 15
27 27 28 28 28 28 29 30 31 31 30 29 29 28 28 27 26 26 24 23 21 20 19 19 18 17 17 17 16 16 16 16 15 14 13 13 12 11 12 13 13 14 15 15
27 27 27 28 28 28 29 30 31 31 29 28 28 27 27 26 26 24 22 21 20 18 18 16 16 16 16 15 14 14 15 14 13 12 12 11 11 11 11 12 12 13 14 15
26 26 28 28 29 29 30 31 31 30 29 28 27 27 26 25 24 22 20 19 17 17 15 14 14 14 14 14 13 13 13 12 11 11 11 11 10 10 10 11 12 14 14 14
27 27 28 28 29 29 29 29 29 29 27 27 26 25 25 23 22 20 19 17 15 14 12 12 13 12 12 13 13 12 12 11 10 10 10 10 10 9 10 11 12 13 14 13
28 28 29 29 30 29 29 28 28 28 27 26 25 24 22 20 20 18 16 14 13 13 12 12 12 11 11 11 12 12 11 10 9 9 9 9 9 9 9 11 12 13 13 13
29 30 30 31 31 30 29 28 28 27 26 25 23 22 20 19 17 15 14 13 12 12 11 11 11 10 10 11 11 11 11 10 9 9 9 9 9 9 9 10 12 13 13 14
30 30 31 31 30 29 29 28 27 26 25 24 22 21 18 16 15 14 13 12 12 11 11 10 10 9 9 10 10 10 9 9 8 8 8 9 9 9 10 10 11 12 13 14
30 30 30 30 30 29 28 27 26 25 24 23 21 19 17 15 14 13 12 12 11 11 10 9 8 9 9 10 9 9 8 8 8 8 8 9 9 9 9 10 12 13 13 15
31 31 30 30 30 28 27 26 25 24 24 22 20 17 15 15 14 13 12 12 11 10 9 8 8 8 9 9 8 8 7 7 7 7 8 9 9 10 10 11 12 13 14 15
31 30 30 29 29 28 27 25 24 23 23 21 19 17 15 14 13 12 11 11 10 9 8 7 7 8 8 8 8 7 7 7 7 8 9 9 10 10 11 11 12 13 14 15
30 30 30 29 28 27 26 24 23 22 21 20 18 16 15 14 13 12 11 10 9 9 8 8 7 7 7 7 7 6 7 6 7 8 9 9 10 11 12 12 13 14 15 16
31 30 29 28 27 26 24 23 21 21 20 18 17 16 15 13 12 11 10 10 9 8 7 7 6 6 6 6 6 6 6 6 7 8 9 10 10 11 11 12 14 15 16 16
30 29 29 28 27 25 23 21 19 19 18 17 16 15 13 12 11 10 9 8 7 7 6 6 5 5 5 5 5 5 6 6 8 8 9 10 10 11 12 13 15 16 16 17
29 29 28 26 25 24 21 20 19 18 17 16 15 14 13 12 10 10 8 7 6 5 5 5 5 5 5 5 5 5 5 7 7 8 9 10 11 12 13 14 15 16 17 17
29 27 26 25 24 22 20 19 18 17 16 15 15 14 13 12 11 9 8 7 6 5 4 4 4 4 5 5 4 4 5 6 7 8 9 10 11 12 13 14 15 16 17 18
28 26 25 24 22 20 19 18 17 16 15 14 14 14 13 12 11 10 9 7 6 5 5 4 4 4 5 4 4 4 5 6 7 8 8 10 11 12 13 14 16 17 17 18
26 25 24 22 21 19 18 17 16 15 14 14 14 14 13 12 12 11 10 8 7 6 5 4 4 3 3 3 3 4 5 5 6 7 8 10 11 12 13 15 16 17 18 19
25 24 23 21 20 18 17 16 15 15 14 14 14 13 13 12 12 12 10 9 8 6 5 4 4 3 3 3 4 5 5 6 7 8 8 10 11 12 13 15 16 17 18 19
24 23 23 21 20 19 17 16 15 15 14 14 13 13 13 12 12 12 11 10 9 7 6 5 5 4 3 3 4 5 6 6 7 8 9 10 11 12 14 15 16 17 18 19
24 23 23 22 21 19 17 17 16 15 15 14 14 13 13 13 13 12 11 10 9 8 7 6 5 4 4 4 4 5 6 6 7 8 9 10 11 12 14 15 16 17 19 20
25 23 22 22 21 20 18 17 16 16 16 15 15 14 13 13 13 12 12 11 10 9 8 7 5 5 4 4 4 5 5 6 7 8 9 10 12 13 14 15 16 18 19 20
Wind_Direction
308 307 305 304 305 305 306 306 304 303 301 302 303 304 305 308 308 307 306 305 305 305 305 307 309 307 307 305 306 307 306 306 307 309 310 309 307 308 305 301 301 300 300 300
309 308 305 305 306 307 308 308 308 306 304 305 305 307 308 308 308 306 306 306 306 305 305 305 305 306 305 306 307 307 308 308 309 309 311 311 310 309 308 304 301 301 301 302
311 308 307 306 309 310 311 310 310 310 309 307 307 307 308 308 307 307 307 306 305 305 305 305 305 305 307 306 308 309 310 311 310 309 310 312 312 310 312 312 309 307 307 305
311 310 308 308 307 308 310 311 311 310 312 312 310 309 309 309 308 307 306 305 305 307 307 306 305 305 305 307 309 309 309 309 310 310 312 314 313 312 313 315 316 314 312 309
312 309 308 309 308 308 310 310 310 311 315 315 313 312 312 311 310 310 309 306 306 307 307 308 307 306 305 306 309 310 309 310 311 311 312 312 312 314 314 314 315 316 319 314
313 310 309 309 309 310 310 309 311 313 316 316 315 315 315 313 311 311 310 306 305 305 306 307 308 307 305 305 308 310 310 312 314 315 315 312 310 313 315 317 318 319 321 320
313 311 310 310 311 312 309 310 312 314 315 316 316 317 316 315 312 311 310 308 306 306 307 310 311 309 308 307 310 312 313 315 316 316 317 317 317 316 317 319 320 319 321 322
313 311 309 308 309 309 309 312 313 316 315 315 315 315 316 316 313 312 308 308 308 308 309 310 312 312 311 310 313 316 317 317 317 319 323 322 321 324 325 326 326 324 323 323
311 310 310 308 306 306 308 311 313 313 313 312 313 314 314 314 314 313 309 307 308 309 311 312 315 316 313 311 314 319 322 320 318 321 326 327 326 330 329 329 328 326 325 326
308 309 309 309 308 309 308 309 312 314 314 314 313 313 312 313 313 312 308 307 307 309 313 316 318 318 315 313 316 320 323 321 318 324 329 330 327 328 333 335 334 333 331 331
305 306 306 306 308 309 310 309 310 312 313 313 312 311 312 313 313 310 310 310 310 310 314 317 318 318 317 318 321 322 321 322 322 325 329 333 332 332 336 337 337 335 334 334
303 304 305 306 307 309 310 309 309 310 311 311 310 310 310 312 312 310 312 314 312 313 316 316 318 319 321 323 324 325 325 323 322 327 331 339 341 335 336 336 335 336 336 336
302 302 303 305 305 306 307 307 308 308 310 310 309 307 306 307 308 311 311 314 311 312 314 314 317 321 321 323 326 327 328 328 326 330 337 343 343 336 337 341 340 339 339 339
301 301 301 302 303 303 304 304 305 306 307 308 305 303 300 301 303 307 306 309 309 308 313 318 319 323 325 327 329 330 331 333 333 335 339 343 341 337 341 343 342 341 340 341
299 299 300 301 302 302 301 302 303 303 304 303 300 297 292 295 299 298 299 303 307 304 309 317 321 323 325 328 330 332 334 336 340 343 345 345 346 346 349 348 344 342 340 340
298 298 298 300 302 302 300 300 299 300 301 298 294 290 287 288 292 293 294 299 301 302 306 311 316 322 321 318 323 334 340 341 342 346 350 349 350 349 347 347 345 343 343 343
296 295 295 297 299 300 299 297 296 297 296 292 289 285 285 284 284 284 285 291 294 296 304 308 308 314 317 318 326 333 338 343 346 346 347 349 348 344 343 345 344 344 344 344
294 294 294 295 296 298 297 294 293 292 290 286 284 283 282 280 277 277 278 279 282 290 297 302 307 309 310 317 326 336 341 342 344 347 348 346 343 341 344 345 345 345 346 347
291 292 292 293 293 295 295 290 285 285 287 284 281 278 274 277 275 270 270 271 278 288 291 295 297 297 303 311 318 328 336 342 346 347 345 343 341 343 345 346 346 346 347 347
288 290 291 291 291 291 290 284 279 277 277 276 273 268 265 267 267 261 257 259 272 279 281 282 286 292 300 304 309 316 326 335 341 344 344 345 346 348 349 349 349 349 348 348
286 287 288 289 289 286 284 280 276 273 269 266 262 260 260 260 256 249 245 250 264 271 269 268 280 288 297 302 307 314 323 331 338 341 342 345 349 350 350 350 350 350 349 348
282 284 285 285 286 283 280 277 272 269 265 259 253 252 252 249 244 239 238 244 250 250 251 258 275 287 294 298 304 314 322 330 335 338 340 343 348 350 350 350 349 349 348 348
280 281 281 281 280 279 277 274 268 263 257 250 248 244 241 241 238 233 231 232 231 232 237 250 267 283 296 308 315 319 323 331 335 336 338 342 345 347 347 348 348 348 347 348
277 278 277 276 275 275 273 268 261 256 250 245 242 237 235 235 230 227 226 223 222 226 232 244 258 269 284 305 322 330 331 334 335 334 338 341 343 345 346 346 346 347 347 348
275 274 273 272 271 269 266 260 256 253 247 239 234 232 230 228 225 222 222 220 222 228 235 243 248 254 269 290 313 327 333 335 334 337 341 342 344 346 345 346 346 346 347 348
271 269 268 267 265 262 260 257 252 244 237 230 228 227 225 224 223 221 220 219 221 226 233 239 244 252 266 282 303 315 323 328 331 337 341 344 345 345 346 346 347 347 348 348
268 266 265 262 258 257 254 248 240 234 228 225 223 222 221 220 219 218 217 217 220 225 231 236 240 248 262 278 296 306 317 327 335 341 343 344 344 344 345 346 346 346 347 348
Height
5830 5827 5824 5821 5819 5816 5813 5810 5806 5803 5799 5794 5791 5787 5783 5778 5775 5771 5768 5764 5761 5758 5755 5752 5749 5747 5745 5742 5740 5737 5735 5733 5731 5729 5726 5724 5722 5721 5719 5717 5716 5714 5713 5711
5825 5822 5818 5816 5813 5810 5808 5804 5801 5797 5793 5788 5784 5780 5777 5772 5768 5764 5761 5758 5755 5752 5749 5747 5745 5742 5740 5738 5735 5733 5731 5729 5727 5724 5722 5720 5718 5716 5715 5713 5712 5710 5708 5706
5819 5816 5813 5811 5808 5805 5801 5798 5795 5791 5787 5782 5778 5774 5770 5766 5762 5759 5756 5752 5749 5746 5744 5741 5739 5737 5735 5733 5730 5728 5726 5724 5722 5720 5718 5716 5714 5713 5711 5708 5707 5706 5704 5702
5813 5811 5808 5808 5802 5799 5796 5793 5788 5784 5780 5775 5772 5768 5764 5759 5755 5752 5749 5746 5743 5741 5738 5736 5734 5731 5729 5728 5726 5724 5722 5720 5718 5716 5714 5712 5710 5709 5707 5705 5703 5702 5701 5699
5808 5805 5802 5800 5796 5793 5790 5786 5782 5779 5775 5770 5766 5761 5757 5753 5749 5745 5742 5740 5738 5735 5733 5731 5729 5727 5725 5724 5722 5719 5717 5716 5714 5711 5710 5708 5707 5705 5704 5702 5701 5699 5698 5696
5803 5799 5796 5794 5790 5787 5785 5780 5777 5773 5769 5764 5760 5756 5752 5748 5744 5740 5737 5735 5733 5731 5729 5726 5725 5723 5721 5719 5717 5715 5714 5712 5710 5708 5706 5705 5703 5702 5701 5700 5699 5697 5696 5694
5798 5794 5791 5787 5784 5782 5780 5776 5771 5767 5762 5758 5754 5750 5747 5743 5739 5736 5733 5730 5728 5727 5724 5722 5720 5719 5717 5715 5714 5712 5710 5708 5707 5705 5704 5702 5701 5700 5699 5697 5696 5695 5694 5692
5793 5789 5788 5782 5779 5777 5773 5768 5764 5760 5756 5752 5749 5746 5742 5738 5734 5731 5729 5727 5725 5723 5721 5719 5717 5715 5714 5712 5711 5709 5707 5706 5704 5703 5701 5700 5699 5698 5697 5695 5694 5693 5691 5690
5789 5787 5782 5777 5774 5771 5767 5763 5760 5756 5752 5748 5745 5741 5737 5734 5731 5728 5725 5723 5721 5719 5717 5716 5714 5713 5711 5710 5708 5707 5705 5703 5702 5701 5700 5698 5697 5696 5695 5694 5693 5691 5690 5688
5783 5780 5777 5773 5769 5765 5761 5758 5755 5751 5747 5743 5740 5736 5733 5730 5727 5724 5722 5720 5718 5717 5715 5714 5712 5711 5709 5708 5706 5705 5703 5702 5700 5699 5698 5697 5696 5695 5694 5693 5691 5689 5688 5686
5777 5774 5771 5767 5763 5759 5756 5752 5749 5745 5742 5738 5735 5732 5729 5726 5724 5721 5719 5717 5716 5714 5713 5712 5710 5709 5708 5706 5705 5703 5702 5700 5699 5698 5697 5696 5694 5693 5692 5691 5689 5688 5686 5683
5770 5767 5763 5761 5757 5753 5750 5747 5743 5740 5737 5733 5730 5727 5725 5722 5720 5718 5717 5715 5714 5712 5711 5710 5709 5708 5707 5705 5704 5702 5700 5699 5698 5697 5696 5695 5693 5692 5691 5690 5688 5686 5684 5682
5763 5760 5757 5754 5750 5747 5743 5740 5737 5734 5731 5728 5726 5723 5721 5719 5717 5716 5714 5713 5712 5711 5710 5709 5707 5706 5705 5704 5703 5701 5699 5698 5697 5696 5695 5693 5692 5691 5690 5689 5687 5685 5683 5680
5755 5752 5750 5747 5744 5741 5737 5734 5731 5729 5726 5723 5721 5719 5717 5716 5714 5713 5712 5711 5710 5709 5708 5707 5706 5705 5704 5703 5701 5700 5698 5697 5696 5695 5694 5693 5691 5690 5689 5687 5686 5683 5681 5679
5748 5745 5742 5740 5737 5734 5731 5728 5726 5723 5721 5719 5717 5715 5713 5712 5711 5710 5709 5708 5708 5707 5706 5705 5704 5703 5703 5702 5700 5699 5697 5696 5695 5694 5693 5692 5690 5689 5687 5686 5684 5682 5680 5677
5740 5737 5735 5732 5730 5727 5725 5722 5720 5718 5716 5714 5712 5711 5710 5709 5708 5707 5706 5706 5705 5705 5704 5703 5703 5702 5701 5700 5700 5698 5697 5696 5695 5694 5693 5692 5690 5688 5687 5685 5683 5681 5679 5676
5732 5730 5727 5725 5723 5720 5718 5716 5714 5712 5710 5709 5707 5706 5706 5705 5704 5704 5704 5703 5703 5703 5702 5702 5701 5700 5700 5699 5698 5698 5697 5696 5695 5694 5693 5692 5690 5688 5686 5684 5682 5680 5677 5674
5724 5721 5719 5717 5715 5713 5711 5709 5708 5706 5705 5704 5703 5702 5701 5701 5701 5701 5701 5700 5700 5700 5700 5700 5699 5699 5698 5698 5697 5697 5696 5695 5694 5693 5692 5691 5689 5687 5685 5683 5681 5678 5676 5672
5715 5713 5711 5709 5707 5706 5704 5703 5702 5701 5700 5699 5698 5698 5698 5698 5698 5698 5698 5698 5698 5698 5698 5698 5697 5697 5697 5697 5697 5696 5695 5695 5694 5693 5691 5690 5688 5686 5684 5682 5679 5677 5674 5671
5707 5705 5703 5702 5700 5699 5698 5697 5696 5695 5695 5694 5694 5694 5694 5694 5694 5695 5695 5695 5696 5696 5696 5696 5696 5696 5696 5696 5695 5695 5694 5694 5693 5692 5690 5689 5687 5685 5683 5681 5678 5676 5673 5670
5698 5697 5695 5694 5693 5692 5691 5691 5690 5690 5690 5689 5690 5690 5690 5691 5691 5692 5692 5693 5694 5694 5694 5694 5694 5695 5694 5694 5693 5693 5693 5692 5692 5691 5689 5688 5686 5684 5682 5680 5677 5675 5672 5668
5690 5689 5688 5687 5686 5686 5685 5685 5684 5684 5684 5684 5685 5686 5686 5687 5688 5689 5690 5691 5691 5692 5692 5693 5693 5693 5693 5692 5692 5692 5691 5691 5690 5689 5688 5687 5686 5684 5681 5679 5676 5673 5670 5667
5683 5682 5681 5680 5680 5679 5679 5679 5679 5679 5679 5680 5681 5682 5683 5684 5685 5686 5688 5689 5690 5690 5691 5691 5692 5692 5692 5691 5691 5691 5690 5689 5689 5688 5687 5686 5684 5682 5680 5678 5675 5672 5669 5665
5675 5675 5674 5674 5673 5673 5673 5673 5673 5674 5674 5676 5677 5678 5679 5681 5682 5684 5685 5687 5688 5689 5689 5690 5691 5691 5691 5690 5690 5690 5689 5688 5688 5687 5685 5684 5683 5681 5679 5676 5673 5670 5667 5664
5668 5668 5667 5667 5667 5667 5667 5668 5668 5669 5670 5671 5673 5674 5676 5678 5679 5681 5683 5685 5686 5687 5688 5688 5689 5689 5690 5689 5689 5689 5688 5688 5687 5685 5684 5682 5681 5679 5677 5674 5672 5669 5666 5662
5660 5660 5660 5660 5660 5661 5661 5662 5663 5664 5665 5667 5669 5671 5673 5674 5676 5678 5680 5682 5684 5685 5686 5687 5688 5688 5688 5688 5688 5688 5687 5686 5686 5684 5683 5681 5679 5677 5675 5673 5670 5667 5664 5661
5652 5653 5653 5653 5654 5655 5655 5656 5658 5659 5661 5663 5665 5668 5670 5671 5673 5676 5678 5680 5681 5683 5684 5685 5686 5686 5687 5687 5687 5686 5686 5685 5684 5683 5682 5680 5678 5676 5674 5671 5669 5666 5662 5659